STARLINK-1577, 46063

Orbit data source: Space-Track

STARLINK-1577, 46063 is a payload satellite owned by SpaceX/Seattle (US) in LEO that was launched on Fri, 07 Aug 2020 UTC via an FALCON 9 launch vehicle from the Air Force Eastern Test Range (AFETR). Payloads include a variety of satellites, spacecraft, and rockets equipped with specific instruments for various scientific and technological missions. These include communications satellites like Starlink; space stations such as the ISS; scientific satellites like the Hubble; Earth observation satellites from companies like Planet Labs, Umbra, and HawkEye 360; GPS; miniature CubeSats for education and research; and military/defense satellites.

Loading next visibility...
STARLINK-1577 details
Identifier
46063, 2020-055AN
Orbit
LEO
Last TLE update1 day ago
Origin
Flag of USSpaceX/Seattle (US)
ManufacturerSpaceX/Seattle
MissionOperational Commercial Communications
Bus & MotorSTARLINK, Unknown motor
Mass260 kg wet, ~248 kg dry
Launch date (UTC)
2020-08-07 (4 years ago)
Launch vehicle
FALCON 9
Launch site
Air Force Eastern Test Range (AFETR)
Object type
Payload
Rocket body
Debris
Shape & HBRBox + 1 Pan, 8.86 m
Radar Cross Section13.562 m², Large (>1 m²)

Expand to show TLE details & history

TLE from 1 day ago
0 STARLINK-1577
1 46063U 20055AN  24360.19262846  .00033881  00000-0  22836-2 0  9990
2 46063  53.0539 289.5954 0001081 102.8472 257.2638 15.06383130242250
Epoch: 2024-12-25T04:37Z
Definitive object data (Epoch: 2024-12-25T04:37:23.098Z)
Latitude-0.00003°
Longitude126.05924°
Altitude548.307 km
Speed7.589 km/s
True Right ascension19h 18m 22s
True Declination0° 00' 00"
Sunlit
Object was in daylight at TLE epoch
Visualization TLE readout
Latitude-51.48739°
Longitude50.42774°
Altitude565.583 km
Speed7.578 km/s
Apparent Right ascension18h 26m 14s
Apparent Declination-62° 03' 44"
Sunlit
Object is in daylight
Visualization observer readout
Local Sidereal Time09:53:09
Azimuth143.184° SSE
Elevation-52.135°
Doppler factor1
Orbital elements
Apogee altitude548.283 km
Perigee altitude546.785 km
Semi-major axis6,925.671 km
Eccentricity0.0001081
Inclination53.0539°
RAAN289.5954°
Arg. of periapsis102.8472°
True anomaly257.25172°
Mean anomaly257.2638°
Eccentric anomaly257.25776°
Mean motion3.76574 °/min
BSTAR0.0022836
Orbital period95.6 mins
Loading maneuver chart data...
Loading historical data...
Loading historical data...
Loading historical data...
Loading historical data...
Loading historical data...
Loading historical data...
Loading historical data...

STARLINK-1577 Visibility forecast

Observer location: undefined°, undefined

Span
Click to sort rows by Start time (UTC) header in descending order
Start Az.
Max El. time (UTC)
Max El. Az.
Max El.
End time (UTC)
End Az.
4 mins2024-12-26 20:34:57.674Z160.091° S2024-12-26 20:36:57.674Z127.611° SE16.045°2024-12-26 20:38:57.674Z94.616° ESE
6 mins2024-12-26 22:13:57.674Z245.774° WSW2024-12-26 22:15:57.674Z305.963° NW42.414°2024-12-26 22:19:57.674Z45.421° ENE
4 mins2024-12-26 23:54:57.674Z317.831° NNW2024-12-26 23:55:57.674Z336.006° NNW17.374°2024-12-26 23:58:57.674Z24.908° NE
5 mins2024-12-27 03:15:57.674Z346.336° N2024-12-27 03:17:57.674Z28.51° NE22.497°2024-12-27 03:20:57.674Z78.817° E
6 mins2024-12-27 04:54:57.674Z301.628° NW2024-12-27 04:57:57.674Z189.366° SSW41.824°2024-12-27 05:00:57.674Z141.962° SSE
|